Погода в Вишневом

Украина / Днепропетровская область     48°26′10″N   33°54′58″E
темп.,
°C
ветер,
м/с
пор.,
м/с
влажн.,
%
обл.,
%
осадки,
мм/ч
давл.,
гПа
погр.,
м
9 марта, вт
вт923:00−2зсз378242 0.0 1014172
02:00−3зсз5108427 0.0 1015501
05:00−4сз611820 0.0 1016591
08:00−3сз69661 0.0 1018891
11:00−2сз675532 0.0 10191244
14:00−1сз675766 0.0 10201298
17:00−3сз675954 0.0 10211081
20:00−4ссз576729 0.0 1023679
10 марта, ср
ср1023:00−5с466918 0.0 1025637
02:00−6с356715 0.0 1026557
05:00−6ссв34680 0.0 1026492
08:00−5св356242 0.0 1027517
11:00−3всв3344100 0.0 1027812
14:00−2всв3337100 0.0 10261022
17:00−2всв3441100 0.0 1025925
20:00−3всв3548100 0.0 1026287
11 марта, чт
чт1123:00−4всв365194 0.0 1026264
02:00−4всв365275 0.0 1027248
05:00−5всв475456 0.0 1027300
08:00−4всв574876 0.0 1028566
11:00−2в563989 0.0 1028913
14:000всв453946 0.0 10271251
17:00−1всв45460 0.0 10261160
20:00−3в48540 0.0 1028487
12 марта, пт
пт1223:00−4вюв47500 0.0 1029564
02:00−5вюв45410 0.0 1030534
05:00−6вюв45360 0.0 1030517
08:00−6юв56350 0.0 1031538
11:00−3ююв55269 0.0 1030865
14:00−1ююв572617 0.0 10291035
17:00−2ююв583173 0.0 1028871
20:00−3ююв6103387 0.0 1029770
13 марта, сб
сб1323:00−4ю81252100 0.0 1029641
02:00−4ююв71251100 0.0 1028567
05:00−3ю71252100 0.0 1027560
08:00−2ю8125298 0.0 1028632
11:00+1ю8125799 0.0 1027796
14:00+3ю795699 0.0 10251024
17:00+1ю61061100 0.0 1025740
20:000ю5106799 0.0 1025419